Location: Walnut Point State Park
(39.6958°N, 88.0345°W)
Time: 17:06:51
(UTC-05:00)

Amateur Radio Satellites - All Passes

Search period start: 31 October 2014 16:36
Search period end: 01 November 2014 16:36
Location: Walnut Point State Park, 39.6958°N, 88.0345°W

Satellite Date Start Highest point End Downlink Frequencies (MHz)
Time Altitude Azimuth
AO-7 31 Oct 16:49:37 16:57:42 57° 257° (WSW) 17:05:50 29.400 - 29.500 MHz
OPAL 31 Oct 17:06:31 17:09:08 14° 93° (E) 17:11:43 ?
KITSAT 1 31 Oct 17:35:42 17:40:00 15° 28° (NNE) 17:44:17 435.175 FM
JAS-2 31 Oct 17:36:55 17:43:10 90° 256° (WSW) 17:50:19 435.800 - 435.900 CW/SSB, 435.910 FM
Hamsat 31 Oct 17:40:49 17:44:56 61° 75° (ENE) 17:49:04 145.90 MHz
ISS 31 Oct 17:44:49 17:47:39 26° 227° (SW) 17:50:28 145.800 FM
SO-67 31 Oct 18:25:03 18:27:34 19° 70° (ENE) 18:30:06 435.3500 MHz FM
OPAL 31 Oct 18:43:31 18:48:24 61° 289° (WNW) 18:53:16 ?
STRAND 1 31 Oct 19:01:42 19:06:08 29° 96° (E) 19:10:32 ?
HO-68 31 Oct 19:07:45 19:11:35 15° 53° (NE) 19:15:24 435.675 MHz FM
JAS-2 31 Oct 19:26:26 19:29:22 13° 276° (W) 19:32:27 435.800 - 435.900 CW/SSB, 435.910 FM
KITSAT 1 31 Oct 19:29:48 19:37:38 50° 53° (NE) 19:45:24 435.175 FM
SO-50 31 Oct 19:43:37 19:48:20 49° 54° (NE) 19:53:04 436.795 FM
Oscar 10/S400 31 Oct 19:52:30 20:24:55 56° 197° (SSW) 05:37:36 145.825 - 145.975 CW/USB, Beacon 145.810 USB
SO-67 31 Oct 19:57:45 20:00:24 21° 265° (W) 20:03:05 435.3500 MHz FM
AO-40 31 Oct 20:21:21 21:20:18 13° 105° (ESE) 22:02:18 Beacon 2401.320
Oscar 11 31 Oct 20:26:48 20:27:34 10° 62° (ENE) 20:28:21 145.825 FM, Beacon 2401.500 USB
UOSAT-12 31 Oct 20:26:59 20:30:00 17° 42° (NE) 20:32:59 437.025 FM, 437.400 FM
STRAND 1 31 Oct 20:40:44 20:45:17 33° 292° (WNW) 20:49:49 ?
RS-15 31 Oct 20:48:18 20:58:59 60° 113° (ESE) 21:09:35 29.354 - 29.394 USB, Beacon 29.352 USB
HO-68 31 Oct 20:51:00 20:58:09 79° 72° (ENE) 21:05:21 435.675 MHz FM
UKube-1 31 Oct 21:24:14 21:28:26 50° 72° (ENE) 21:32:39 145.840 MHz, 145.915 MHz
SO-50 31 Oct 21:25:01 21:28:34 20° 250° (WSW) 21:32:06 436.795 FM
KITSAT 1 31 Oct 21:25:34 21:32:47 38° 252° (WSW) 21:40:00 435.175 FM
ZACube-1 31 Oct 21:34:26 21:38:10 26° 69° (ENE) 21:41:51 437.345 MHz
Oscar 11 31 Oct 21:58:50 22:03:08 72° 258° (WSW) 22:07:27 145.825 FM, Beacon 2401.500 USB
UOSAT-12 31 Oct 22:05:58 22:10:41 73° 240° (WSW) 22:15:17 437.025 FM, 437.400 FM
FUNcube-1 31 Oct 22:16:18 22:20:49 73° 76° (ENE) 22:25:15 145.950 - 145.970 MHz USB
MaSat-1 31 Oct 22:22:26 22:26:20 64° 296° (WNW) 22:29:50 437.345 MHz
HO-68 31 Oct 22:41:59 22:46:32 18° 269° (W) 22:51:08 435.675 MHz FM
RS-15 31 Oct 23:01:31 23:11:44 43° 316° (NW) 23:22:01 29.354 - 29.394 USB, Beacon 29.352 USB
UKube-1 31 Oct 23:02:38 23:04:53 14° 268° (W) 23:07:08 145.840 MHz, 145.915 MHz
ZACube-1 31 Oct 23:10:32 23:14:27 28° 264° (W) 23:18:19 437.345 MHz
Sapphire 01 Nov 00:55:08 00:57:04 12° 102° (ESE) 00:59:01 437.095 MHz 1200 baud AX-25 AFSK
PCSat 01 Nov 01:14:26 01:18:23 21° 106° (ESE) 01:22:22 145.825 MHz
JAS-1B 01 Nov 01:16:34 01:22:27 24° 95° (E) 01:29:03 435.800 - 435.900 CW/SSB
RS-15 01 Nov 01:21:03 01:28:13 19° 349° (N) 01:35:28 29.354 - 29.394 USB, Beacon 29.352 USB
Oscar 19 01 Nov 01:34:11 01:38:14 23° 94° (E) 01:42:16 437.125 CW, 437.150 USB
AO-27 01 Nov 02:11:59 02:15:58 22° 94° (E) 02:19:54 436.795 MHz FM
Oscar 16 01 Nov 02:20:34 02:25:41 68° 102° (ESE) 02:30:47 437.025 USB, Beacon 2401.1428
Gurwin Techsat 1B 01 Nov 02:30:58 02:34:26 18° 92° (E) 02:37:54 435.225 FM
Sapphire 01 Nov 02:34:17 02:39:42 84° 298° (WNW) 02:45:09 437.095 MHz 1200 baud AX-25 AFSK
TMSAT-1 01 Nov 02:37:29 02:40:19 15° 91° (E) 02:43:09 436.925 FM
AO-Echo 01 Nov 02:50:56 02:56:16 71° 102° (ESE) 03:01:30 ?
Uribyol 2 01 Nov 02:54:35 02:59:43 58° 101° (E) 03:04:48 436.500 FM
PCSat 01 Nov 02:56:08 03:01:23 51° 303° (WNW) 03:06:41 145.825 MHz
ITAMSAT 1 01 Nov 03:02:40 03:07:52 66° 102° (ESE) 03:13:01 435.822 SSB
JAS-1B 01 Nov 03:06:06 03:13:14 67° 288° (WNW) 03:21:45 435.800 - 435.900 CW/SSB
Oscar 19 01 Nov 03:12:56 03:17:41 40° 290° (WNW) 03:22:25 437.125 CW, 437.150 USB
RS-15 01 Nov 03:37:42 03:46:16 24° 26° (NNE) 03:55:00 29.354 - 29.394 USB, Beacon 29.352 USB
PANSAT 01 Nov 03:46:52 03:47:49 11° 166° (SSE) 03:48:46 not established
AO-27 01 Nov 03:50:42 03:55:39 44° 290° (WNW) 04:00:33 436.795 MHz FM
Oscar 16 01 Nov 04:01:38 04:04:27 15° 298° (WNW) 04:07:16 437.025 USB, Beacon 2401.1428
Gurwin Techsat 1B 01 Nov 04:09:32 04:14:44 56° 288° (WNW) 04:19:54 435.225 FM
TMSAT-1 01 Nov 04:15:25 04:20:41 66° 286° (WNW) 04:25:55 436.925 FM
OPAL 01 Nov 04:19:56 04:24:06 26° 64° (ENE) 04:28:14 ?
Sapphire 01 Nov 04:21:01 04:23:58 15° 318° (NW) 04:26:55 437.095 MHz 1200 baud AX-25 AFSK
AO-Echo 01 Nov 04:31:21 04:34:23 16° 299° (WNW) 04:37:24 ?
Uribyol 2 01 Nov 04:35:21 04:38:42 18° 298° (WNW) 04:42:02 436.500 FM
Uosat F 01 Nov 04:43:20 04:47:49 31° 97° (E) 04:52:16 435.120 FM
ITAMSAT 1 01 Nov 04:43:43 04:46:47 16° 298° (WNW) 04:49:51 435.822 SSB
JAS-2 01 Nov 04:48:52 04:53:42 17° 87° (E) 04:58:24 435.800 - 435.900 CW/SSB, 435.910 FM
AO-7 01 Nov 04:51:49 04:59:56 54° 102° (ESE) 05:08:02 29.400 - 29.500 MHz
JAS-1B 01 Nov 05:00:04 05:02:51 13° 304° (NW) 05:05:48 435.800 - 435.900 CW/SSB
PANSAT 01 Nov 05:24:56 05:27:14 15° 179° (S) 05:29:33 not established
Hamsat 01 Nov 05:29:20 05:30:46 12° 91° (E) 05:32:13 145.90 MHz
RS-15 01 Nov 05:50:05 06:01:14 67° 54° (NE) 06:12:51 29.354 - 29.394 USB, Beacon 29.352 USB
Saudisat 1A 01 Nov 05:55:41 06:00:03 80° 302° (WNW) 06:04:29 436.775 MHz
OPAL 01 Nov 05:58:05 06:02:47 37° 260° (W) 06:07:29 ?
STRAND 1 01 Nov 06:16:44 06:21:27 39° 69° (ENE) 06:26:13 ?
Uosat F 01 Nov 06:22:11 06:26:30 29° 293° (WNW) 06:30:48 435.120 FM
JAS-2 01 Nov 06:31:40 06:39:36 90° 285° (WNW) 06:47:11 435.800 - 435.900 CW/SSB, 435.910 FM
AO-7 01 Nov 06:45:06 06:52:22 35° 300° (WNW) 06:59:39 29.400 - 29.500 MHz
Hamsat 01 Nov 07:02:54 07:07:02 56° 286° (WNW) 07:11:11 145.90 MHz
PANSAT 01 Nov 07:05:16 07:06:40 12° 192° (SSW) 07:08:04 not established
SO-67 01 Nov 07:21:09 07:24:02 24° 96° (E) 07:26:53 435.3500 MHz FM
Saudisat 1A 01 Nov 07:38:47 07:40:21 12° 321° (NW) 07:41:55 436.775 MHz
STRAND 1 01 Nov 07:56:36 08:00:43 24° 265° (W) 08:04:53 ?
RS-15 01 Nov 08:03:15 08:12:52 35° 254° (WSW) 08:22:53 29.354 - 29.394 USB, Beacon 29.352 USB
MaSat-1 01 Nov 08:07:53 08:10:00 27° 250° (WSW) 08:12:03 437.345 MHz
JAS-2 01 Nov 08:18:16 08:23:32 20° 303° (WNW) 08:28:44 435.800 - 435.900 CW/SSB, 435.910 FM
HO-68 01 Nov 08:22:09 08:25:46 14° 89° (E) 08:29:22 435.675 MHz FM
ISS 01 Nov 08:50:29 08:52:36 16° 130° (SE) 08:54:43 145.800 FM
SO-67 01 Nov 08:54:30 08:56:48 17° 291° (WNW) 08:59:05 435.3500 MHz FM
Sapphire 01 Nov 09:42:06 09:44:03 12° 39° (NE) 09:45:59 437.095 MHz 1200 baud AX-25 AFSK
Oscar 11 01 Nov 09:47:56 09:51:15 21° 94° (E) 09:54:32 145.825 FM, Beacon 2401.500 USB
KITSAT 1 01 Nov 09:57:35 10:04:45 37° 108° (ESE) 10:11:56 435.175 FM
SO-50 01 Nov 09:59:20 10:02:18 18° 109° (ESE) 10:05:19 436.795 FM
PCSat 01 Nov 10:02:30 10:06:06 18° 45° (NE) 10:09:41 145.825 MHz
HO-68 01 Nov 10:07:07 10:14:21 88° 106° (ESE) 10:21:33 435.675 MHz FM
FUNcube-1 01 Nov 10:07:56 10:10:05 14° 92° (E) 10:12:13 145.950 - 145.970 MHz USB
ISS 01 Nov 10:25:44 10:28:59 53° 326° (NW) 10:32:15 145.800 FM
UKube-1 01 Nov 10:49:02 10:53:25 77° 285° (WNW) 10:57:45 145.840 MHz, 145.915 MHz
ZACube-1 01 Nov 10:59:57 11:04:06 57° 100° (E) 11:08:10 437.345 MHz
Sapphire 01 Nov 11:23:08 11:28:33 65° 59° (ENE) 11:33:56 437.095 MHz 1200 baud AX-25 AFSK
Oscar 11 01 Nov 11:23:38 11:27:27 31° 290° (WNW) 11:31:15 145.825 FM, Beacon 2401.500 USB
SO-50 01 Nov 11:38:04 11:42:25 48° 307° (NW) 11:46:56 436.795 FM
FUNcube-1 01 Nov 11:42:43 11:46:43 44° 287° (WNW) 11:50:39 145.950 - 145.970 MHz USB
PCSat 01 Nov 11:44:42 11:50:09 78° 244° (WSW) 11:55:32 145.825 MHz
KITSAT 1 01 Nov 11:52:05 11:59:53 51° 307° (NW) 12:07:44 435.175 FM
HO-68 01 Nov 11:56:33 12:01:07 18° 305° (NW) 12:05:40 435.675 MHz FM
Oscar 16 01 Nov 12:01:47 12:03:16 11° 59° (ENE) 12:04:46 437.025 USB, Beacon 2401.1428
ISS 01 Nov 12:04:22 12:06:16 14° 345° (NNW) 12:08:11 145.800 FM
JAS-1B 01 Nov 12:05:32 12:08:05 13° 57° (ENE) 12:10:39 435.800 - 435.900 CW/SSB
UOSAT-12 01 Nov 12:16:17 12:20:36 41° 115° (ESE) 12:25:00 437.025 FM, 437.400 FM
Uribyol 2 01 Nov 12:37:21 12:38:10 10° 58° (ENE) 12:38:59 436.500 FM
ZACube-1 01 Nov 12:38:25 12:39:58 12° 297° (WNW) 12:41:32 437.345 MHz
ITAMSAT 1 01 Nov 12:44:33 12:46:20 12° 59° (ENE) 12:48:06 435.822 SSB
Oscar 19 01 Nov 12:50:13 12:54:43 32° 68° (ENE) 12:59:13 437.125 CW, 437.150 USB
Sapphire 01 Nov 13:08:06 13:11:23 16° 256° (WSW) 13:14:39 437.095 MHz 1200 baud AX-25 AFSK
AO-27 01 Nov 13:29:12 13:33:44 31° 67° (ENE) 13:38:18 436.795 MHz FM
Oscar 16 01 Nov 13:36:41 13:41:50 89° 72° (ENE) 13:47:00 437.025 USB, Beacon 2401.1428
ISS 01 Nov 13:43:03 13:44:06 11° 5° (N) 13:45:09 145.800 FM
Gurwin Techsat 1B 01 Nov 13:51:03 13:55:24 27° 66° (ENE) 13:59:46 435.225 FM
JAS-1B 01 Nov 13:52:13 13:57:59 79° 256° (WSW) 14:03:44 435.800 - 435.900 CW/SSB
KITSAT 1 01 Nov 13:53:06 13:57:28 15° 332° (NNW) 14:01:51 435.175 FM
UOSAT-12 01 Nov 13:57:01 14:00:53 25° 313° (NW) 14:04:48 437.025 FM, 437.400 FM
TMSAT-1 01 Nov 13:57:05 14:01:07 22° 65° (ENE) 14:05:08 436.925 FM
AO-7 01 Nov 14:02:30 14:06:35 15° 48° (NE) 14:10:40 29.400 - 29.500 MHz
AO-Echo 01 Nov 14:02:51 14:07:50 81° 75° (ENE) 14:13:01 ?
Uribyol 2 01 Nov 14:11:32 14:16:45 81° 75° (ENE) 14:22:01 436.500 FM
ITAMSAT 1 01 Nov 14:19:48 14:25:01 90° 254° (WSW) 14:30:17 435.822 SSB
Saudisat 1A 01 Nov 14:23:04 14:27:28 63° 56° (NE) 14:31:51 436.775 MHz
Oscar 19 01 Nov 14:29:34 14:34:01 29° 264° (W) 14:38:28 437.125 CW, 437.150 USB
AO-27 01 Nov 15:08:35 15:13:10 31° 263° (W) 15:17:48 436.795 MHz FM
ISS 01 Nov 15:18:56 15:21:44 24° 25° (NNE) 15:24:31 145.800 FM
Gurwin Techsat 1B 01 Nov 15:30:15 15:35:10 38° 262° (W) 15:40:06 435.225 FM
TMSAT-1 01 Nov 15:35:38 15:40:42 46° 261° (W) 15:45:48 436.925 FM
AO-Echo 01 Nov 15:46:08 15:47:15 11° 272° (W) 15:48:22 ?
AO-7 01 Nov 15:49:40 15:57:49 67° 68° (ENE) 16:06:00 29.400 - 29.500 MHz
Uribyol 2 01 Nov 15:55:17 15:56:49 11° 271° (W) 15:58:20 436.500 FM
Uosat F 01 Nov 15:55:43 16:00:24 40° 70° (ENE) 16:05:06 435.120 FM
Saudisat 1A 01 Nov 16:04:32 16:06:29 13° 252° (WSW) 16:08:27 436.775 MHz
